TimeEST,TemperatureF,Dew PointF,Humidity,Sea Level PressureIn,VisibilityMPH,Wind Direction,Wind SpeedMPH,Gust SpeedMPH,PrecipitationIn,Events,Conditions,WindDirDegrees,DateUTC
12:15 AM,12.2,6.4,78,29.92,10.0,East,4.6,-,N/A,,Overcast,100,2013-02-05 05:15:00
12:34 AM,11.8,7.3,82,29.91,10.0,East,4.6,-,N/A,,Overcast,100,2013-02-05 05:34:00
12:55 AM,11.5,7.2,83,29.91,10.0,ESE,5.8,-,N/A,,Mostly Cloudy,110,2013-02-05 05:55:00
1:14 AM,11.1,7.2,84,29.90,10.0,ESE,5.8,-,N/A,,Mostly Cloudy,120,2013-02-05 06:14:00
1:35 AM,10.9,7.2,85,29.89,10.0,SE,3.5,-,N/A,,Overcast,130,2013-02-05 06:35:00
1:55 AM,10.8,7.0,85,29.88,10.0,ESE,3.5,-,N/A,,Overcast,120,2013-02-05 06:55:00
2:14 AM,10.4,6.8,85,29.88,10.0,Calm,Calm,-,N/A,,Overcast,0,2013-02-05 07:14:00
2:35 AM,9.5,6.4,87,29.88,10.0,ESE,3.5,-,N/A,,Overcast,120,2013-02-05 07:35:00
2:55 AM,10.2,6.8,86,29.88,10.0,SSE,4.6,-,N/A,,Overcast,150,2013-02-05 07:55:00
3:14 AM,11.7,6.6,80,29.87,10.0,South,4.6,-,N/A,,Overcast,190,2013-02-05 08:14:00
3:35 AM,14.4,8.6,78,29.87,10.0,South,8.1,-,N/A,,Overcast,190,2013-02-05 08:35:00
3:54 AM,14.9,8.6,76,29.87,10.0,South,5.8,-,N/A,,Overcast,180,2013-02-05 08:54:00
4:15 AM,11.3,6.6,81,29.86,10.0,SSE,8.1,-,N/A,,Overcast,150,2013-02-05 09:15:00
4:34 AM,9.0,5.2,85,29.86,10.0,SSE,6.9,-,N/A,,Overcast,160,2013-02-05 09:34:00
4:55 AM,9.3,5.5,85,29.86,10.0,South,8.1,-,N/A,Snow,Light Snow,170,2013-02-05 09:55:00
5:14 AM,9.3,5.5,85,29.84,10.0,South,10.4,-,N/A,,Mostly Cloudy,170,2013-02-05 10:14:00
5:35 AM,9.1,5.0,83,29.83,10.0,South,8.1,-,N/A,,Scattered Clouds,170,2013-02-05 10:35:00
5:54 AM,9.3,5.0,83,29.83,10.0,South,9.2,-,N/A,,Scattered Clouds,170,2013-02-05 10:54:00
6:15 AM,9.5,5.0,82,29.82,10.0,South,8.1,-,N/A,,Mostly Cloudy,170,2013-02-05 11:15:00
6:34 AM,9.9,5.0,81,29.82,10.0,SSE,8.1,-,N/A,,Overcast,160,2013-02-05 11:34:00
7:15 AM,11.3,6.3,80,29.80,10.0,South,9.2,-,N/A,,Overcast,170,2013-02-05 12:15:00
7:33 AM,11.7,6.4,80,29.79,10.0,South,9.2,-,N/A,,Overcast,170,2013-02-05 12:33:00
7:55 AM,11.8,7.0,81,29.80,10.0,South,6.9,-,N/A,,Overcast,170,2013-02-05 12:55:00
8:15 AM,12.4,7.3,80,29.79,10.0,SSE,8.1,-,N/A,,Overcast,160,2013-02-05 13:15:00
8:34 AM,12.9,7.3,78,29.79,10.0,South,9.2,-,N/A,,Overcast,170,2013-02-05 13:34:00
8:55 AM,13.3,7.5,78,29.79,5.0,SSE,6.9,-,N/A,Snow,Light Snow,160,2013-02-05 13:55:00
9:14 AM,13.5,8.6,81,29.79,1.2,South,6.9,-,N/A,Snow,Light Snow,170,2013-02-05 14:14:00
9:35 AM,13.8,9.5,83,29.78,1.5,SSE,8.1,-,N/A,Snow,Light Snow,160,2013-02-05 14:35:00
9:55 AM,14.0,10.4,86,29.77,1.8,SSE,9.2,-,N/A,Snow,Light Snow,160,2013-02-05 14:55:00
10:14 AM,14.9,11.3,86,29.76,1.5,SSE,8.1,-,N/A,Snow,Light Snow,150,2013-02-05 15:14:00
10:35 AM,16.3,12.6,85,29.74,2.5,SSE,10.4,-,N/A,Snow,Light Snow,150,2013-02-05 15:35:00
10:55 AM,17.2,13.3,84,29.73,3.0,SSE,9.2,-,N/A,Snow,Light Snow,160,2013-02-05 15:55:00
11:14 AM,19.2,14.9,83,29.73,2.0,South,10.4,17.3,N/A,Snow,Light Snow,170,2013-02-05 16:14:00
11:35 AM,20.3,16.0,83,29.72,1.2,South,9.2,16.1,N/A,Snow,Light Snow,190,2013-02-05 16:35:00
11:55 AM,20.3,16.0,83,29.71,1.2,South,12.7,20.7,N/A,Snow,Light Snow,180,2013-02-05 16:55:00
12:14 PM,20.7,16.3,83,29.69,2.5,South,10.4,17.3,N/A,Snow,Light Snow,170,2013-02-05 17:14:00
12:35 PM,21.4,16.7,82,29.69,1.2,South,12.7,17.3,N/A,Snow,Light Snow,190,2013-02-05 17:35:00
12:54 PM,21.7,17.2,83,29.68,1.8,South,10.4,18.4,N/A,Snow,Light Snow,190,2013-02-05 17:54:00
1:15 PM,22.1,18.3,85,29.68,2.0,SSW,9.2,17.3,N/A,Snow,Light Snow,210,2013-02-05 18:15:00
1:35 PM,23.5,20.3,87,29.68,1.0,WSW,15.0,18.4,N/A,Snow,Light Snow,240,2013-02-05 18:35:00
1:54 PM,23.4,19.9,87,29.69,1.0,West,18.4,21.9,N/A,Snow,Light Snow,280,2013-02-05 18:54:00
2:15 PM,22.8,18.7,84,29.70,1.5,West,16.1,-,N/A,Snow,Light Snow,280,2013-02-05 19:15:00
2:35 PM,22.5,17.8,82,29.70,2.5,WNW,16.1,21.9,N/A,Snow,Light Snow,290,2013-02-05 19:35:00
2:54 PM,22.1,17.4,82,29.71,3.0,West,16.1,20.7,N/A,Snow,Light Snow,280,2013-02-05 19:54:00
3:15 PM,21.9,16.9,81,29.72,3.0,WNW,15.0,18.4,N/A,Snow,Light Snow,290,2013-02-05 20:15:00
3:35 PM,21.7,16.7,81,29.73,4.0,WNW,13.8,-,N/A,Snow,Light Snow,300,2013-02-05 20:35:00
3:54 PM,21.7,16.0,78,29.74,10.0,WNW,15.0,20.7,N/A,Snow,Light Snow,300,2013-02-05 20:54:00
4:15 PM,21.9,15.8,77,29.75,10.0,NW,15.0,19.6,N/A,,Overcast,310,2013-02-05 21:15:00
4:35 PM,21.7,15.6,77,29.77,10.0,WNW,15.0,19.6,N/A,,Overcast,300,2013-02-05 21:35:00
4:55 PM,21.6,15.4,77,29.78,7.0,NNW,16.1,19.6,N/A,Snow,Light Snow,330,2013-02-05 21:55:00
5:15 PM,20.5,13.1,73,29.79,10.0,NW,11.5,-,N/A,,Mostly Cloudy,310,2013-02-05 22:15:00
5:34 PM,20.7,12.7,71,29.80,10.0,NW,8.1,-,N/A,,Mostly Cloudy,310,2013-02-05 22:34:00
5:55 PM,21.7,13.5,70,29.81,10.0,NW,11.5,20.7,N/A,,Mostly Cloudy,320,2013-02-05 22:55:00
6:15 PM,21.4,13.1,70,29.82,10.0,NW,11.5,-,N/A,,Scattered Clouds,310,2013-02-05 23:15:00
6:34 PM,22.1,13.6,70,29.82,10.0,NW,13.8,23.0,N/A,,Scattered Clouds,320,2013-02-05 23:34:00
6:54 PM,23.0,14.5,70,29.83,10.0,NNW,16.1,20.7,N/A,,Mostly Cloudy,330,2013-02-05 23:54:00
7:14 PM,23.5,15.6,72,29.84,10.0,NNW,17.3,20.7,N/A,,Overcast,330,2013-02-06 00:14:00
7:35 PM,23.7,18.0,79,29.86,5.0,NNW,17.3,24.2,N/A,Snow,Light Snow,330,2013-02-06 00:35:00
7:54 PM,23.0,14.0,68,29.88,5.0,NNW,19.6,27.6,N/A,,Haze,330,2013-02-06 00:54:00
8:15 PM,22.5,11.8,64,29.89,5.0,NNW,18.4,28.8,N/A,,Haze,340,2013-02-06 01:15:00
8:34 PM,22.8,13.1,66,29.90,10.0,NW,19.6,25.3,N/A,,Overcast,320,2013-02-06 01:34:00
8:55 PM,22.5,13.1,67,29.91,7.0,NNW,16.1,23.0,N/A,Snow,Light Snow,330,2013-02-06 01:55:00
9:14 PM,22.6,13.3,67,29.92,7.0,NW,18.4,27.6,N/A,Snow,Light Snow,320,2013-02-06 02:14:00
9:35 PM,22.1,16.3,79,29.93,3.0,NW,20.7,26.5,N/A,Snow,Light Snow,320,2013-02-06 02:35:00
9:54 PM,21.9,13.8,71,29.93,7.0,NW,18.4,24.2,N/A,Snow,Light Snow,320,2013-02-06 02:54:00
10:15 PM,21.2,15.3,78,29.95,3.0,NNW,17.3,26.5,N/A,Snow,Light Snow,330,2013-02-06 03:15:00
10:34 PM,20.8,12.0,69,29.96,7.0,NW,19.6,26.5,N/A,,Overcast,320,2013-02-06 03:34:00
10:55 PM,20.3,10.8,67,29.97,10.0,NW,17.3,25.3,N/A,,Mostly Cloudy,320,2013-02-06 03:55:00
11:14 PM,20.1,10.8,67,29.98,10.0,NNW,16.1,23.0,N/A,Snow,Light Snow,330,2013-02-06 04:14:00
11:35 PM,19.4,11.5,71,29.99,7.0,NNW,13.8,23.0,N/A,,Overcast,340,2013-02-06 04:35:00
11:55 PM,19.2,11.3,71,30.00,7.0,NNW,13.8,24.2,N/A,,Overcast,330,2013-02-06 04:55:00